Year,Month,Day,Hour,Minute,Value (Times are PST for temperature in C)
2011,11,17,00,00,5.20
2011,11,17,00,01,5.20
2011,11,17,00,02,5.20
2011,11,17,00,03,5.10
2011,11,17,00,04,5.10
2011,11,17,00,05,5.00
2011,11,17,00,06,4.90
2011,11,17,00,07,4.90
2011,11,17,00,08,4.80
2011,11,17,00,09,4.80
2011,11,17,00,10,4.70
2011,11,17,00,11,4.60
2011,11,17,00,12,4.60
2011,11,17,00,13,4.60
2011,11,17,00,14,4.50
2011,11,17,00,15,4.50
2011,11,17,00,16,4.50
2011,11,17,00,17,4.40
2011,11,17,00,18,4.40
2011,11,17,00,19,4.40
2011,11,17,00,20,4.40
2011,11,17,00,21,4.50
2011,11,17,00,22,4.50
2011,11,17,00,23,4.50
2011,11,17,00,24,4.60
2011,11,17,00,25,4.60
2011,11,17,00,26,4.60
2011,11,17,00,27,4.60
2011,11,17,00,28,4.70
2011,11,17,00,29,4.70
2011,11,17,00,30,4.70
2011,11,17,00,31,4.70
2011,11,17,00,32,4.70
2011,11,17,00,33,4.70
2011,11,17,00,34,4.70
2011,11,17,00,35,4.70
2011,11,17,00,36,4.70
2011,11,17,00,37,4.70
2011,11,17,00,38,4.70
2011,11,17,00,39,4.70
2011,11,17,00,40,4.70
2011,11,17,00,41,4.70
2011,11,17,00,42,4.70
2011,11,17,00,43,4.60
2011,11,17,00,44,4.60
2011,11,17,00,45,4.60
2011,11,17,00,46,4.60
2011,11,17,00,47,4.60
2011,11,17,00,48,4.60
2011,11,17,00,49,4.60
2011,11,17,00,50,4.60
2011,11,17,00,51,4.60
2011,11,17,00,52,4.60
2011,11,17,00,53,4.60
2011,11,17,00,54,4.50
2011,11,17,00,55,4.50
2011,11,17,00,56,4.50
2011,11,17,00,57,4.50
2011,11,17,00,58,4.50
2011,11,17,00,59,4.50
2011,11,17,01,00,4.50
2011,11,17,01,01,4.50
2011,11,17,01,02,4.40
2011,11,17,01,03,4.40
2011,11,17,01,04,4.40
2011,11,17,01,05,4.40
2011,11,17,01,06,4.40
2011,11,17,01,07,4.40
2011,11,17,01,08,4.50
2011,11,17,01,09,4.50
2011,11,17,01,10,4.50
2011,11,17,01,11,4.60
2011,11,17,01,12,4.60
2011,11,17,01,13,4.60
2011,11,17,01,14,4.60
2011,11,17,01,15,4.60
2011,11,17,01,16,4.60
2011,11,17,01,17,4.60
2011,11,17,01,18,4.50
2011,11,17,01,19,4.50
2011,11,17,01,20,4.40
2011,11,17,01,21,4.40
2011,11,17,01,22,4.40
2011,11,17,01,23,4.40
2011,11,17,01,24,4.40
2011,11,17,01,25,4.40
2011,11,17,01,26,4.40
2011,11,17,01,27,4.40
2011,11,17,01,28,4.40
2011,11,17,01,29,4.40
2011,11,17,01,30,4.50
2011,11,17,01,31,4.50
2011,11,17,01,32,4.50
2011,11,17,01,33,4.40
2011,11,17,01,34,4.40
2011,11,17,01,35,4.40
2011,11,17,01,36,4.40
2011,11,17,01,37,4.30
2011,11,17,01,38,4.30
2011,11,17,01,39,4.30
2011,11,17,01,40,4.30
2011,11,17,01,41,4.30
2011,11,17,01,42,4.30
2011,11,17,01,43,4.30
2011,11,17,01,44,4.30
2011,11,17,01,45,4.30
2011,11,17,01,46,4.40
2011,11,17,01,47,4.30
2011,11,17,01,48,4.30
2011,11,17,01,49,4.30
2011,11,17,01,50,4.30
2011,11,17,01,51,4.30
2011,11,17,01,52,4.30
2011,11,17,01,53,4.40
2011,11,17,01,54,4.40
2011,11,17,01,55,4.40
2011,11,17,01,56,4.40
2011,11,17,01,57,4.40
2011,11,17,01,58,4.40
2011,11,17,01,59,4.40
2011,11,17,02,00,4.40
2011,11,17,02,01,4.40
2011,11,17,02,02,4.40
2011,11,17,02,03,4.40
2011,11,17,02,04,4.40
2011,11,17,02,05,4.40
2011,11,17,02,06,4.40
2011,11,17,02,07,4.30
2011,11,17,02,08,4.20
2011,11,17,02,09,4.20
2011,11,17,02,10,4.10
2011,11,17,02,11,4.00
2011,11,17,02,12,3.90
2011,11,17,02,13,3.90
2011,11,17,02,14,3.80
2011,11,17,02,15,3.80
2011,11,17,02,16,3.80
2011,11,17,02,17,3.80
2011,11,17,02,18,3.70
2011,11,17,02,19,3.70
2011,11,17,02,20,3.70
2011,11,17,02,21,3.60
2011,11,17,02,22,3.60
2011,11,17,02,23,3.60
2011,11,17,02,24,3.60
2011,11,17,02,25,3.60
2011,11,17,02,26,3.60
2011,11,17,02,27,3.60
2011,11,17,02,28,3.50
2011,11,17,02,29,3.50
2011,11,17,02,30,3.50
2011,11,17,02,31,3.50
2011,11,17,02,32,3.60
2011,11,17,02,33,3.60
2011,11,17,02,34,3.70
2011,11,17,02,35,3.70
2011,11,17,02,36,3.80
2011,11,17,02,37,3.80
2011,11,17,02,38,3.90
2011,11,17,02,39,4.00
2011,11,17,02,40,4.00
2011,11,17,02,41,4.00
2011,11,17,02,42,4.00
2011,11,17,02,43,4.00
2011,11,17,02,44,3.90
2011,11,17,02,45,3.90
2011,11,17,02,46,3.80
2011,11,17,02,47,3.80
2011,11,17,02,48,3.80
2011,11,17,02,49,3.80
2011,11,17,02,50,3.80
2011,11,17,02,51,3.80
2011,11,17,02,52,3.80
2011,11,17,02,53,3.80
2011,11,17,02,54,3.90
2011,11,17,02,55,3.90
2011,11,17,02,56,3.90
2011,11,17,02,57,4.00
2011,11,17,02,58,4.00
2011,11,17,02,59,4.10
2011,11,17,03,00,4.10
2011,11,17,03,01,4.10
2011,11,17,03,02,4.20
2011,11,17,03,03,4.20
2011,11,17,03,04,4.30
2011,11,17,03,05,4.30
2011,11,17,03,06,4.30
2011,11,17,03,07,4.30
2011,11,17,03,08,4.30
2011,11,17,03,09,4.30
2011,11,17,03,10,4.30
2011,11,17,03,11,4.30
2011,11,17,03,12,4.30
2011,11,17,03,13,4.30
2011,11,17,03,14,4.30
2011,11,17,03,15,4.20
2011,11,17,03,16,4.10
2011,11,17,03,17,4.00
2011,11,17,03,18,3.90
2011,11,17,03,19,3.90
2011,11,17,03,20,3.80
2011,11,17,03,21,3.70
2011,11,17,03,22,3.70
2011,11,17,03,23,3.60
2011,11,17,03,24,3.60
2011,11,17,03,25,3.60
2011,11,17,03,26,3.60
2011,11,17,03,27,3.60
2011,11,17,03,28,3.60
2011,11,17,03,29,3.60
2011,11,17,03,30,3.60
2011,11,17,03,31,3.60
2011,11,17,03,32,3.50
2011,11,17,03,33,3.60
2011,11,17,03,34,3.60
2011,11,17,03,35,3.60
2011,11,17,03,36,3.60
2011,11,17,03,37,3.60
2011,11,17,03,38,3.60
2011,11,17,03,39,3.50
2011,11,17,03,40,3.50
2011,11,17,03,41,3.60
2011,11,17,03,42,3.60
2011,11,17,03,43,3.60
2011,11,17,03,44,3.70
2011,11,17,03,45,3.70
2011,11,17,03,46,3.70
2011,11,17,03,47,3.70
2011,11,17,03,48,3.70
2011,11,17,03,49,3.60
2011,11,17,03,50,3.60
2011,11,17,03,51,3.60
2011,11,17,03,52,3.60
2011,11,17,03,53,3.60
2011,11,17,03,54,3.60
2011,11,17,03,55,3.60
2011,11,17,03,56,3.70
2011,11,17,03,57,3.70
2011,11,17,03,58,3.70
2011,11,17,03,59,3.70
2011,11,17,04,00,3.60
2011,11,17,04,01,3.70
2011,11,17,04,02,3.60
2011,11,17,04,03,3.60
2011,11,17,04,04,3.70
2011,11,17,04,05,3.70
2011,11,17,04,06,3.60
2011,11,17,04,07,3.60
2011,11,17,04,08,3.60
2011,11,17,04,09,3.60
2011,11,17,04,10,3.60
2011,11,17,04,11,3.60
2011,11,17,04,12,3.50
2011,11,17,04,13,3.50
2011,11,17,04,14,3.50
2011,11,17,04,15,3.40
2011,11,17,04,16,3.40
2011,11,17,04,17,3.40
2011,11,17,04,18,3.30
2011,11,17,04,19,3.30
2011,11,17,04,20,3.30
2011,11,17,04,21,3.20
2011,11,17,04,22,3.20
2011,11,17,04,23,3.20
2011,11,17,04,24,3.20
2011,11,17,04,25,3.10
2011,11,17,04,26,3.10
2011,11,17,04,27,3.00
2011,11,17,04,28,3.00
2011,11,17,04,29,3.00
2011,11,17,04,30,2.90
2011,11,17,04,31,2.90
2011,11,17,04,32,2.80
2011,11,17,04,33,2.80
2011,11,17,04,34,2.80
2011,11,17,04,35,2.70
2011,11,17,04,36,2.70
2011,11,17,04,37,2.60
2011,11,17,04,38,2.60
2011,11,17,04,39,2.50
2011,11,17,04,40,2.50
2011,11,17,04,41,2.40
2011,11,17,04,42,2.40
2011,11,17,04,43,2.30
2011,11,17,04,44,2.30
2011,11,17,04,45,2.20
2011,11,17,04,46,2.20
2011,11,17,04,47,2.20
2011,11,17,04,48,2.20
2011,11,17,04,49,2.20
2011,11,17,04,50,2.10
2011,11,17,04,51,2.10
2011,11,17,04,52,2.10
2011,11,17,04,53,2.10
2011,11,17,04,54,2.10
2011,11,17,04,55,2.10
2011,11,17,04,56,2.00
2011,11,17,04,57,2.00
2011,11,17,04,58,2.00
2011,11,17,04,59,2.00
2011,11,17,05,00,2.00
2011,11,17,05,01,2.00
2011,11,17,05,02,2.10
2011,11,17,05,03,2.10
2011,11,17,05,04,2.10
2011,11,17,05,05,2.20
2011,11,17,05,06,2.20
2011,11,17,05,07,2.20
2011,11,17,05,08,2.20
2011,11,17,05,09,2.20
2011,11,17,05,10,2.20
2011,11,17,05,11,2.20
2011,11,17,05,12,2.20
2011,11,17,05,13,2.20
2011,11,17,05,14,2.20
2011,11,17,05,15,2.20
2011,11,17,05,16,2.20
2011,11,17,05,17,2.20
2011,11,17,05,18,2.20
2011,11,17,05,19,2.20
2011,11,17,05,20,2.20
2011,11,17,05,21,2.20
2011,11,17,05,22,2.20
2011,11,17,05,23,2.20
2011,11,17,05,24,2.20
2011,11,17,05,25,2.10
2011,11,17,05,26,2.10
2011,11,17,05,27,2.10
2011,11,17,05,28,2.10
2011,11,17,05,29,2.00
2011,11,17,05,30,2.00
2011,11,17,05,31,1.90
2011,11,17,05,32,1.90
2011,11,17,05,33,1.80
2011,11,17,05,34,1.80
2011,11,17,05,35,1.80
2011,11,17,05,36,1.70
2011,11,17,05,37,1.70
2011,11,17,05,38,1.60
2011,11,17,05,39,1.60
2011,11,17,05,40,1.50
2011,11,17,05,41,1.50
2011,11,17,05,42,1.50
2011,11,17,05,43,1.40
2011,11,17,05,44,1.40
2011,11,17,05,45,1.40
2011,11,17,05,46,1.40
2011,11,17,05,47,1.40
2011,11,17,05,48,1.50
2011,11,17,05,49,1.50
2011,11,17,05,50,1.60
2011,11,17,05,51,1.70
2011,11,17,05,52,1.70
2011,11,17,05,53,1.70
2011,11,17,05,54,1.70
2011,11,17,05,55,1.70
2011,11,17,05,56,1.70
2011,11,17,05,57,1.70
2011,11,17,05,58,1.60
2011,11,17,05,59,1.60
2011,11,17,06,00,1.50
2011,11,17,06,01,1.50
2011,11,17,06,02,1.40
2011,11,17,06,03,1.30
2011,11,17,06,04,1.30
2011,11,17,06,05,1.30
2011,11,17,06,06,1.30
2011,11,17,06,07,1.30
2011,11,17,06,08,1.30
2011,11,17,06,09,1.30
2011,11,17,06,10,1.30
2011,11,17,06,11,1.20
2011,11,17,06,12,1.20
2011,11,17,06,13,1.20
2011,11,17,06,14,1.20
2011,11,17,06,15,1.10
2011,11,17,06,16,1.10
2011,11,17,06,17,1.10
2011,11,17,06,18,1.10
2011,11,17,06,19,1.10
2011,11,17,06,20,1.00
2011,11,17,06,21,1.00
2011,11,17,06,22,1.00
2011,11,17,06,23,0.90
2011,11,17,06,24,0.90
2011,11,17,06,25,0.90
2011,11,17,06,26,0.90
2011,11,17,06,27,0.90
2011,11,17,06,28,0.90
2011,11,17,06,29,0.90
2011,11,17,06,30,0.90
2011,11,17,06,31,0.90
2011,11,17,06,32,0.90
2011,11,17,06,33,1.00
2011,11,17,06,34,1.10
2011,11,17,06,35,1.20
2011,11,17,06,36,1.30
2011,11,17,06,37,1.30
2011,11,17,06,38,1.30
2011,11,17,06,39,1.40
2011,11,17,06,40,1.50
2011,11,17,06,41,1.60
2011,11,17,06,42,1.60
2011,11,17,06,43,1.60
2011,11,17,06,44,1.60
2011,11,17,06,45,1.70
2011,11,17,06,46,1.70
2011,11,17,06,47,1.70
2011,11,17,06,48,1.70
2011,11,17,06,49,1.70
2011,11,17,06,50,1.70
2011,11,17,06,51,1.80
2011,11,17,06,52,1.80
2011,11,17,06,53,1.80
2011,11,17,06,54,1.80
2011,11,17,06,55,1.80
2011,11,17,06,56,1.80
2011,11,17,06,57,1.80
2011,11,17,06,58,1.80
2011,11,17,06,59,1.80
2011,11,17,07,00,1.80
2011,11,17,07,01,1.70
2011,11,17,07,02,1.70
2011,11,17,07,03,1.70
2011,11,17,07,04,1.70
2011,11,17,07,05,1.60
2011,11,17,07,06,1.60
2011,11,17,07,07,1.60
2011,11,17,07,08,1.50
2011,11,17,07,09,1.50
2011,11,17,07,10,1.40
2011,11,17,07,11,1.40
2011,11,17,07,12,1.40
2011,11,17,07,13,1.40
2011,11,17,07,14,1.40
2011,11,17,07,15,1.40
2011,11,17,07,16,1.50
2011,11,17,07,17,1.50
2011,11,17,07,18,1.60
2011,11,17,07,19,1.60
2011,11,17,07,20,1.70
2011,11,17,07,21,1.70
2011,11,17,07,22,1.70
2011,11,17,07,23,1.60
2011,11,17,07,24,1.60
2011,11,17,07,25,1.50
2011,11,17,07,26,1.40
2011,11,17,07,27,1.30
2011,11,17,07,28,1.30
2011,11,17,07,29,1.30
2011,11,17,07,30,1.20
2011,11,17,07,31,1.10
2011,11,17,07,32,1.00
2011,11,17,07,33,0.90
2011,11,17,07,34,0.90
2011,11,17,07,35,0.80
2011,11,17,07,36,0.80
2011,11,17,07,37,0.80
2011,11,17,07,38,0.80
2011,11,17,07,39,0.80
2011,11,17,07,40,0.70
2011,11,17,07,41,0.70
2011,11,17,07,42,0.70
2011,11,17,07,43,0.70
2011,11,17,07,44,0.70
2011,11,17,07,45,0.70
2011,11,17,07,46,0.60
2011,11,17,07,47,0.60
2011,11,17,07,48,0.60
2011,11,17,07,49,0.60
2011,11,17,07,50,0.60
2011,11,17,07,51,0.60
2011,11,17,07,52,0.60
2011,11,17,07,53,0.60
2011,11,17,07,54,0.60
2011,11,17,07,55,0.70
2011,11,17,07,56,0.70
2011,11,17,07,57,0.80
2011,11,17,07,58,1.00
2011,11,17,07,59,1.10
2011,11,17,08,00,1.20
2011,11,17,08,01,1.30
2011,11,17,08,02,1.30
2011,11,17,08,03,1.30
2011,11,17,08,04,1.40
2011,11,17,08,05,1.50
2011,11,17,08,06,1.60
2011,11,17,08,07,1.70
2011,11,17,08,08,1.70
2011,11,17,08,09,1.80
2011,11,17,08,10,1.90
2011,11,17,08,11,2.00
2011,11,17,08,12,2.00
2011,11,17,08,13,2.10
2011,11,17,08,14,2.10
2011,11,17,08,15,2.20
2011,11,17,08,16,2.20
2011,11,17,08,17,2.20
2011,11,17,08,18,2.30
2011,11,17,08,19,2.30
2011,11,17,08,20,2.30
2011,11,17,08,21,2.30
2011,11,17,08,22,2.30
2011,11,17,08,23,2.30
2011,11,17,08,24,2.30
2011,11,17,08,25,2.30
2011,11,17,08,26,2.30
2011,11,17,08,27,2.30
2011,11,17,08,28,2.30
2011,11,17,08,29,2.30
2011,11,17,08,30,2.20
2011,11,17,08,31,2.20
2011,11,17,08,32,2.20
2011,11,17,08,33,2.20
2011,11,17,08,34,2.10
2011,11,17,08,35,2.10
2011,11,17,08,36,2.10
2011,11,17,08,37,2.10
2011,11,17,08,38,2.10
2011,11,17,08,39,2.10
2011,11,17,08,40,2.10
2011,11,17,08,41,2.10
2011,11,17,08,42,2.20
2011,11,17,08,43,2.20
2011,11,17,08,44,2.20
2011,11,17,08,45,2.30
2011,11,17,08,46,2.30
2011,11,17,08,47,2.30
2011,11,17,08,48,2.40
2011,11,17,08,49,2.40
2011,11,17,08,50,2.40
2011,11,17,08,51,2.40
2011,11,17,08,52,2.50
2011,11,17,08,53,2.50
2011,11,17,08,54,2.50
2011,11,17,08,55,2.50
2011,11,17,08,56,2.50
2011,11,17,08,57,2.50
2011,11,17,08,58,2.50
2011,11,17,08,59,2.50
2011,11,17,09,00,2.50
2011,11,17,09,01,2.50
2011,11,17,09,02,2.50
2011,11,17,09,03,2.50
2011,11,17,09,04,2.50
2011,11,17,09,05,2.50
2011,11,17,09,06,2.40
2011,11,17,09,07,2.40
2011,11,17,09,08,2.40
2011,11,17,09,09,2.40
2011,11,17,09,10,2.40
2011,11,17,09,11,2.40
2011,11,17,09,12,2.40
2011,11,17,09,13,2.40
2011,11,17,09,14,2.40
2011,11,17,09,15,2.40
2011,11,17,09,16,2.40
2011,11,17,09,17,2.40
2011,11,17,09,18,2.40
2011,11,17,09,19,2.40
2011,11,17,09,20,2.40
2011,11,17,09,21,2.40
2011,11,17,09,22,2.40
2011,11,17,09,23,2.40
2011,11,17,09,24,2.40
2011,11,17,09,25,2.40
2011,11,17,09,26,2.40
2011,11,17,09,27,2.40
2011,11,17,09,28,2.40
2011,11,17,09,29,2.50
2011,11,17,09,30,2.50
2011,11,17,09,31,2.60
2011,11,17,09,32,2.60
2011,11,17,09,33,2.70
2011,11,17,09,34,2.70
2011,11,17,09,35,2.70
2011,11,17,09,36,2.70
2011,11,17,09,37,2.70
2011,11,17,09,38,2.70
2011,11,17,09,39,2.70
2011,11,17,09,40,2.80
2011,11,17,09,41,2.80
2011,11,17,09,42,2.80
2011,11,17,09,43,2.80
2011,11,17,09,44,2.80
2011,11,17,09,45,2.80
2011,11,17,09,46,2.70
2011,11,17,09,47,2.70
2011,11,17,09,48,2.70
2011,11,17,09,49,2.70
2011,11,17,09,50,2.70
2011,11,17,09,51,2.60
2011,11,17,09,52,2.60
2011,11,17,09,53,2.60
2011,11,17,09,54,2.50
2011,11,17,09,55,2.50
2011,11,17,09,56,2.40
2011,11,17,09,57,2.40
2011,11,17,09,58,2.40
2011,11,17,09,59,2.30
2011,11,17,10,00,2.30
2011,11,17,10,01,2.30
2011,11,17,10,02,2.30
2011,11,17,10,03,2.30
2011,11,17,10,04,2.30
2011,11,17,10,05,2.30
2011,11,17,10,06,2.30
2011,11,17,10,07,2.30
2011,11,17,10,08,2.30
2011,11,17,10,09,2.30
2011,11,17,10,10,2.30
2011,11,17,10,11,2.40
2011,11,17,10,12,2.40
2011,11,17,10,13,2.40
2011,11,17,10,14,2.40
2011,11,17,10,15,2.40
2011,11,17,10,16,2.50
2011,11,17,10,17,2.60
2011,11,17,10,18,2.60
2011,11,17,10,19,2.70
2011,11,17,10,20,2.70
2011,11,17,10,21,2.80
2011,11,17,10,22,2.80
2011,11,17,10,23,2.80
2011,11,17,10,24,2.80
2011,11,17,10,25,2.80
2011,11,17,10,26,2.90
2011,11,17,10,27,2.90
2011,11,17,10,28,2.90
2011,11,17,10,29,3.00
2011,11,17,10,30,3.00
2011,11,17,10,31,3.10
2011,11,17,10,32,3.10
2011,11,17,10,33,3.10
2011,11,17,10,34,3.10
2011,11,17,10,35,3.20
2011,11,17,10,36,3.20
2011,11,17,10,37,3.20
2011,11,17,10,38,3.30
2011,11,17,10,39,3.30
2011,11,17,10,40,3.30
2011,11,17,10,41,3.30
2011,11,17,10,42,3.30
2011,11,17,10,43,3.30
2011,11,17,10,44,3.40
2011,11,17,10,45,3.40
2011,11,17,10,46,3.40
2011,11,17,10,47,3.40
2011,11,17,10,48,3.40
2011,11,17,10,49,3.40
2011,11,17,10,50,3.40
2011,11,17,10,51,3.40
2011,11,17,10,52,3.40
2011,11,17,10,53,3.40
2011,11,17,10,54,3.40
2011,11,17,10,55,3.50
2011,11,17,10,56,3.50
2011,11,17,10,57,3.50
2011,11,17,10,58,3.50
2011,11,17,10,59,3.50
2011,11,17,11,00,3.40
2011,11,17,11,01,3.40
2011,11,17,11,02,3.40
2011,11,17,11,03,3.40
2011,11,17,11,04,3.40
2011,11,17,11,05,3.40
2011,11,17,11,06,3.40
2011,11,17,11,07,3.40
2011,11,17,11,08,3.40
2011,11,17,11,09,3.40
2011,11,17,11,10,3.40
2011,11,17,11,11,3.40
2011,11,17,11,12,3.40
2011,11,17,11,13,3.40
2011,11,17,11,14,3.40
2011,11,17,11,15,3.50
2011,11,17,11,16,3.50
2011,11,17,11,17,3.50
2011,11,17,11,18,3.50
2011,11,17,11,19,3.50
2011,11,17,11,20,3.50
2011,11,17,11,21,3.50
2011,11,17,11,22,3.50
2011,11,17,11,23,3.50
2011,11,17,11,24,3.50
2011,11,17,11,25,3.60
2011,11,17,11,26,3.60
2011,11,17,11,27,3.60
2011,11,17,11,28,3.60
2011,11,17,11,29,3.50
2011,11,17,11,30,3.50
2011,11,17,11,31,3.50
2011,11,17,11,32,3.50
2011,11,17,11,33,3.50
2011,11,17,11,34,3.50
2011,11,17,11,35,3.50
2011,11,17,11,36,3.50
2011,11,17,11,37,3.50
2011,11,17,11,38,3.50
2011,11,17,11,39,3.50
2011,11,17,11,40,3.50
2011,11,17,11,41,3.50
2011,11,17,11,42,3.50
2011,11,17,11,43,3.50
2011,11,17,11,44,3.50
2011,11,17,11,45,3.50
2011,11,17,11,46,3.50
2011,11,17,11,47,3.50
2011,11,17,11,48,3.50
2011,11,17,11,49,3.60
2011,11,17,11,50,3.60
2011,11,17,11,51,3.60
2011,11,17,11,52,3.60
2011,11,17,11,53,3.50
2011,11,17,11,54,3.50
2011,11,17,11,55,3.50
2011,11,17,11,56,3.50
2011,11,17,11,57,3.50
2011,11,17,11,58,3.50
2011,11,17,11,59,3.50
2011,11,17,12,00,3.50
2011,11,17,12,01,3.50
2011,11,17,12,02,3.50
2011,11,17,12,03,3.50
2011,11,17,12,04,3.50
2011,11,17,12,05,3.50
2011,11,17,12,06,3.50
2011,11,17,12,07,3.50
2011,11,17,12,08,3.50
2011,11,17,12,09,3.50
2011,11,17,12,10,3.50
2011,11,17,12,11,3.50
2011,11,17,12,12,3.50
2011,11,17,12,13,3.50
2011,11,17,12,14,3.50
2011,11,17,12,15,3.50
2011,11,17,12,16,3.50
2011,11,17,12,17,3.50
2011,11,17,12,18,3.50
2011,11,17,12,19,3.60
2011,11,17,12,20,3.60
2011,11,17,12,21,3.60
2011,11,17,12,22,3.60
2011,11,17,12,23,3.60
2011,11,17,12,24,3.50
2011,11,17,12,25,3.60
2011,11,17,12,26,3.50
2011,11,17,12,27,3.50
2011,11,17,12,28,3.60
2011,11,17,12,29,3.60
2011,11,17,12,30,3.60
2011,11,17,12,31,3.60
2011,11,17,12,32,3.50
2011,11,17,12,33,3.50
2011,11,17,12,34,3.50
2011,11,17,12,35,3.50
2011,11,17,12,36,3.50
2011,11,17,12,37,3.50
2011,11,17,12,38,3.50
2011,11,17,12,39,3.50
2011,11,17,12,40,3.40
2011,11,17,12,41,3.40
2011,11,17,12,42,3.40
2011,11,17,12,43,3.40
2011,11,17,12,44,3.40
2011,11,17,12,45,3.30
2011,11,17,12,46,3.30
2011,11,17,12,47,3.20
2011,11,17,12,48,3.20
2011,11,17,12,49,3.20
2011,11,17,12,50,3.10
2011,11,17,12,51,3.10
2011,11,17,12,52,3.00
2011,11,17,12,53,3.00
2011,11,17,12,54,3.00
2011,11,17,12,55,2.90
2011,11,17,12,56,2.90
2011,11,17,12,57,2.90
2011,11,17,12,58,2.90
2011,11,17,12,59,2.90
2011,11,17,13,00,2.90
2011,11,17,13,01,3.00
2011,11,17,13,02,3.10
2011,11,17,13,03,3.20
2011,11,17,13,04,3.20
2011,11,17,13,05,3.30
2011,11,17,13,06,3.40
2011,11,17,13,07,3.40
2011,11,17,13,08,3.50
2011,11,17,13,09,3.50
2011,11,17,13,10,3.60
2011,11,17,13,11,3.70
2011,11,17,13,12,3.70
2011,11,17,13,13,3.80
2011,11,17,13,14,3.80
2011,11,17,13,15,3.90
2011,11,17,13,16,3.90
2011,11,17,13,17,3.90
2011,11,17,13,18,4.00
2011,11,17,13,19,4.00
2011,11,17,13,20,4.00
2011,11,17,13,21,4.10
2011,11,17,13,22,4.20
2011,11,17,13,23,4.20
2011,11,17,13,24,4.20
2011,11,17,13,25,4.20
2011,11,17,13,26,4.20
2011,11,17,13,27,4.10
2011,11,17,13,28,4.00
2011,11,17,13,29,4.00
2011,11,17,13,30,3.90
2011,11,17,13,31,3.90
2011,11,17,13,32,3.90
2011,11,17,13,33,3.80
2011,11,17,13,34,3.90
2011,11,17,13,35,3.80
2011,11,17,13,36,3.80
2011,11,17,13,37,3.80
2011,11,17,13,38,3.80
2011,11,17,13,39,3.70
2011,11,17,13,40,3.70
2011,11,17,13,41,3.70
2011,11,17,13,42,3.70
2011,11,17,13,43,3.70
2011,11,17,13,44,3.60
2011,11,17,13,45,3.60
2011,11,17,13,46,3.60
2011,11,17,13,47,3.50
2011,11,17,13,48,3.50
2011,11,17,13,49,3.50
2011,11,17,13,50,3.40
2011,11,17,13,51,3.40
2011,11,17,13,52,3.40
2011,11,17,13,53,3.40
2011,11,17,13,54,3.40
2011,11,17,13,55,3.40
2011,11,17,13,56,3.40
2011,11,17,13,57,3.40
2011,11,17,13,58,3.40
2011,11,17,13,59,3.40
2011,11,17,14,00,3.40
2011,11,17,14,01,3.50
2011,11,17,14,02,3.40
2011,11,17,14,03,3.40
2011,11,17,14,04,3.40
2011,11,17,14,05,3.40
2011,11,17,14,06,3.40
2011,11,17,14,07,3.40
2011,11,17,14,08,3.40
2011,11,17,14,09,3.40
2011,11,17,14,10,3.40
2011,11,17,14,11,3.30
2011,11,17,14,12,3.30
2011,11,17,14,13,3.30
2011,11,17,14,14,3.30
2011,11,17,14,15,3.30
2011,11,17,14,16,3.30
2011,11,17,14,17,3.30
2011,11,17,14,18,3.30
2011,11,17,14,19,3.30
2011,11,17,14,20,3.30
2011,11,17,14,21,3.30
2011,11,17,14,22,3.30
2011,11,17,14,23,3.40
2011,11,17,14,24,3.40
2011,11,17,14,25,3.40
2011,11,17,14,26,3.40
2011,11,17,14,27,3.40
2011,11,17,14,28,3.40
2011,11,17,14,29,3.40
2011,11,17,14,30,3.40
2011,11,17,14,31,3.40
2011,11,17,14,32,3.40
2011,11,17,14,33,3.40
2011,11,17,14,34,3.40
2011,11,17,14,35,3.40
2011,11,17,14,36,3.40
2011,11,17,14,37,3.40
2011,11,17,14,38,3.40
2011,11,17,14,39,3.40
2011,11,17,14,40,3.40
2011,11,17,14,41,3.40
2011,11,17,14,42,3.40
2011,11,17,14,43,3.40
2011,11,17,14,44,3.40
2011,11,17,14,45,3.40
2011,11,17,14,46,3.40
2011,11,17,14,47,3.40
2011,11,17,14,48,3.40
2011,11,17,14,49,3.40
2011,11,17,14,50,3.40
2011,11,17,14,51,3.40
2011,11,17,14,52,3.40
2011,11,17,14,53,3.40
2011,11,17,14,54,3.40
2011,11,17,14,55,3.40
2011,11,17,14,56,3.50
2011,11,17,14,57,3.50
2011,11,17,14,58,3.50
2011,11,17,14,59,3.50
2011,11,17,15,00,3.50
2011,11,17,15,01,3.60
2011,11,17,15,02,3.60
2011,11,17,15,03,3.60
2011,11,17,15,04,3.60
2011,11,17,15,05,3.60
2011,11,17,15,06,3.60
2011,11,17,15,07,3.60
2011,11,17,15,08,3.60
2011,11,17,15,09,3.60
2011,11,17,15,10,3.60
2011,11,17,15,11,3.60
2011,11,17,15,12,3.60
2011,11,17,15,13,3.60
2011,11,17,15,14,3.60
2011,11,17,15,15,3.60
2011,11,17,15,16,3.60
2011,11,17,15,17,3.60
2011,11,17,15,18,3.60
2011,11,17,15,19,3.60
2011,11,17,15,20,3.60
2011,11,17,15,21,3.60
2011,11,17,15,22,3.60
2011,11,17,15,23,3.60
2011,11,17,15,24,3.50
2011,11,17,15,25,3.50
2011,11,17,15,26,3.50
2011,11,17,15,27,3.40
2011,11,17,15,28,3.40
2011,11,17,15,29,3.40
2011,11,17,15,30,3.40
2011,11,17,15,31,3.40
2011,11,17,15,32,3.40
2011,11,17,15,33,3.40
2011,11,17,15,34,3.40
2011,11,17,15,35,3.40
2011,11,17,15,36,3.40
2011,11,17,15,37,3.40
2011,11,17,15,38,3.40
2011,11,17,15,39,3.30
2011,11,17,15,40,3.30
2011,11,17,15,41,3.30
2011,11,17,15,42,3.30
2011,11,17,15,43,3.30
2011,11,17,15,44,3.20
2011,11,17,15,45,3.20
2011,11,17,15,46,3.10
2011,11,17,15,47,3.10
2011,11,17,15,48,3.10
2011,11,17,15,49,3.10
2011,11,17,15,50,3.10
2011,11,17,15,51,3.00
2011,11,17,15,52,3.00
2011,11,17,15,53,2.90
2011,11,17,15,54,2.90
2011,11,17,15,55,2.90
2011,11,17,15,56,2.90
2011,11,17,15,57,2.90
2011,11,17,15,58,2.80
2011,11,17,15,59,2.80
2011,11,17,16,00,2.80
2011,11,17,16,01,2.80
2011,11,17,16,02,2.80
2011,11,17,16,03,2.70
2011,11,17,16,04,2.70
2011,11,17,16,05,2.70
2011,11,17,16,06,2.70
2011,11,17,16,07,2.70
2011,11,17,16,08,2.70
2011,11,17,16,09,2.70
2011,11,17,16,10,2.70
2011,11,17,16,11,2.60
2011,11,17,16,12,2.60
2011,11,17,16,13,2.60
2011,11,17,16,14,2.60
2011,11,17,16,15,2.60
2011,11,17,16,16,2.60
2011,11,17,16,17,2.60
2011,11,17,16,18,2.60
2011,11,17,16,19,2.60
2011,11,17,16,20,2.60
2011,11,17,16,21,2.60
2011,11,17,16,22,2.50
2011,11,17,16,23,2.50
2011,11,17,16,24,2.50
2011,11,17,16,25,2.50
2011,11,17,16,26,2.50
2011,11,17,16,27,2.50
2011,11,17,16,28,2.50
2011,11,17,16,29,2.50
2011,11,17,16,30,2.50
2011,11,17,16,31,2.50
2011,11,17,16,32,2.50
2011,11,17,16,33,2.40
2011,11,17,16,34,2.40
2011,11,17,16,35,2.40
2011,11,17,16,36,2.40
2011,11,17,16,37,2.40
2011,11,17,16,38,2.40
2011,11,17,16,39,2.40
2011,11,17,16,40,2.40
2011,11,17,16,41,2.40
2011,11,17,16,42,2.40
2011,11,17,16,43,2.40
2011,11,17,16,44,2.40
2011,11,17,16,45,2.40
2011,11,17,16,46,2.40
2011,11,17,16,47,2.40
2011,11,17,16,48,2.30
2011,11,17,16,49,2.30
2011,11,17,16,50,2.30
2011,11,17,16,51,2.30
2011,11,17,16,52,2.30
2011,11,17,16,53,2.30
2011,11,17,16,54,2.20
2011,11,17,16,55,2.20
2011,11,17,16,56,2.20
2011,11,17,16,57,2.20
2011,11,17,16,58,2.20
2011,11,17,16,59,2.20
2011,11,17,17,00,2.20
2011,11,17,17,01,2.10
2011,11,17,17,02,2.10
2011,11,17,17,03,2.10
2011,11,17,17,04,2.10
2011,11,17,17,05,2.00
2011,11,17,17,06,2.00
2011,11,17,17,07,1.90
2011,11,17,17,08,1.90
2011,11,17,17,09,1.90
2011,11,17,17,10,1.90
2011,11,17,17,11,1.80
2011,11,17,17,12,1.80
2011,11,17,17,13,1.80
2011,11,17,17,14,1.80
2011,11,17,17,15,1.80
2011,11,17,17,16,1.70
2011,11,17,17,17,1.70
2011,11,17,17,18,1.70
2011,11,17,17,19,1.70
2011,11,17,17,20,1.70
2011,11,17,17,21,1.70
2011,11,17,17,22,1.70
2011,11,17,17,23,1.70
2011,11,17,17,24,1.70
2011,11,17,17,25,1.70
2011,11,17,17,26,1.70
2011,11,17,17,27,1.70
2011,11,17,17,28,1.60
2011,11,17,17,29,1.60
2011,11,17,17,30,1.60
2011,11,17,17,31,1.60
2011,11,17,17,32,1.60
2011,11,17,17,33,1.60
2011,11,17,17,34,1.60
2011,11,17,17,35,1.60
2011,11,17,17,36,1.60
2011,11,17,17,37,1.60
2011,11,17,17,38,1.60
2011,11,17,17,39,1.60
2011,11,17,17,40,1.60
2011,11,17,17,41,1.60
2011,11,17,17,42,1.60
2011,11,17,17,43,1.60
2011,11,17,17,44,1.60
2011,11,17,17,45,1.50
2011,11,17,17,46,1.50
2011,11,17,17,47,1.50
2011,11,17,17,48,1.50
2011,11,17,17,49,1.50
2011,11,17,17,50,1.50
2011,11,17,17,51,1.50
2011,11,17,17,52,1.50
2011,11,17,17,53,1.40
2011,11,17,17,54,1.40
2011,11,17,17,55,1.40
2011,11,17,17,56,1.40
2011,11,17,17,57,1.40
2011,11,17,17,58,1.50
2011,11,17,17,59,1.50
2011,11,17,18,00,1.50
2011,11,17,18,01,1.50
2011,11,17,18,02,1.50
2011,11,17,18,03,1.50
2011,11,17,18,04,1.50
2011,11,17,18,05,1.50
2011,11,17,18,06,1.60